Location: Foligno
(42.9600°N, 12.7050°E)
Time: 10:13:58
(UTC+01:00)

ISS - Visible Passes

Search period start: 16 November 2018 00:00
Search period end: 26 November 2018 00:00
Orbit: 401 x 408 km, 51.6° (Epoch: 16 November)

Date Brightness Start Highest point End Pass type
(mag) Time Alt. Az. Time Alt. Az. Time Alt. Az.
16 Nov -1.4 05:38:44 12° SW 05:38:44 12° SW 05:39:34 10° SSW visible
22 Nov -1.3 18:39:44 10° S 18:40:28 14° S 18:40:28 14° S visible
23 Nov -1.6 17:48:53 10° SSE 17:50:24 13° SE 17:50:47 13° ESE visible
23 Nov -0.5 19:23:12 10° WSW 19:23:28 12° WSW 19:23:28 12° WSW visible
24 Nov -3.1 18:31:06 10° SW 18:33:40 45° S 18:33:40 45° S visible
25 Nov -2.6 17:39:19 10° SSW 17:42:11 29° SE 17:43:48 19° E visible
25 Nov -0.9 19:15:29 10° W 19:16:28 17° W 19:16:28 17° W visible
